Simultaneous Nadir Overpasses (SNOs) Predictions

Prediction of SNOs between METOP-A and NOAA-19 Satellite Orbit:

Table of predicted SNOs for the next 14.0 days since TLE Epoch: 8/26/2017
Index Date (METOP-A) Time (METOP-A) Lat,Lon (METOP-A) SZA (METOP-A ) Date (NOAA-19) Time (NOAA-19) Lat,Lon (NOAA-19) SZA (NOAA-19 ) Distance(km) Time Diff (sec)
1 09/02/2017 22:31:02 77.58,-152.27 69.99 09/02/2017 22:29:53 77.58,-152.20 70.00 1.93 69
2 09/02/2017 23:21:44 -77.57, 15.02 110.01 09/02/2017 23:20:56 -77.59, 15.01 109.99 2.48 48
3 09/03/2017 00:12:24 77.56,-177.70 70.00 09/03/2017 00:11:54 77.56,-177.60 70.01 2.56 30
4 09/03/2017 01:03:06 -77.55, -10.41 110.00 09/03/2017 01:02:57 -77.57, -10.40 109.98 2.45 9
5 09/03/2017 01:53:46 77.54, 156.87 70.00 09/03/2017 01:53:55 77.54, 156.99 70.01 3.19 9
6 09/03/2017 02:44:28 -77.53, -35.84 110.00 09/03/2017 02:44:58 -77.55, -35.80 109.97 2.62 30
7 09/03/2017 03:35:08 77.52, 131.44 70.01 09/03/2017 03:35:56 77.53, 131.59 70.02 3.82 48
8 09/03/2017 04:25:50 -77.51, -61.27 109.99 09/03/2017 04:26:59 -77.53, -61.20 109.96 2.94 69




NCC Satellite Simultaneous Nadir Overpasses (SNOs) Prediction Service
